Regional Weather Roundup
Issued by NWS

Home | Current Version | Previous Version | Text Only | Print | Product List | Glossary Off
Versions: 1 2 3 4 5 6 7 8 9 10 11 12 13 14 15 16 17 18 19 20 21 22 23 24 25 26 27 28 29 30 31 32 33 34 35 36 37 38 39 40 41 42 43 44 45 46 47 48 49 50

000
ASUS43 KLMK 171710
RWRKY
KENTUCKY REGIONAL WEATHER ROUNDUP
NATIONAL WEATHER SERVICE LOUISVILLE KY
1200 PM EST SUN DEC 17 2017

NOTE "FAIR" INDICATES FEW OR NO CLOUDS BELOW 12,000 FEET
WITH NO SIGNIFICANT WEATHER AND/OR OBSTRUCTIONS TO VISIBILITY.

KYZ001>023-026-027-061>063-070>075-171800-
WESTERN AND SOUTH CENTRAL KENTUCKY

CITY           SKY/WX    TMP DP  RH WIND       PRES   REMARKS
PADUCAH        CLOUDY    45  41  86 SE9       30.11F
HENDERSON      LGT RAIN  43  38  82 S9        30.16F
OWENSBORO      LGT RAIN  43  37  79 SW8       30.19R
HOPKINSVILLE   DRIZZLE   43  41  93 CALM      30.16F FOG
BOWLING GREEN  CLOUDY    45  38  76 SW8       30.17R
GLASGOW        CLOUDY    46  37  70 S9        30.15F
$$

KYZ024-025-028>034-038-045-046-053-171800-
NORTH CENTRAL KENTUCKY

CITY           SKY/WX    TMP DP  RH WIND       PRES   REMARKS
LOUISVILLE/SDF CLOUDY    46  34  62 S6        30.14S
LOUISVILLE/LOU CLOUDY    45  35  68 S6        30.15F
FORT KNOX      CLOUDY    45  32  61 S10       30.14S
$$

KYZ035>037-039>044-047>052-055>060-089>105-171800-
NORTHEAST KENTUCKY

CITY           SKY/WX    TMP DP  RH WIND       PRES   REMARKS
LEXINGTON      LGT RAIN  44  33  65 S9        30.12F
COVINGTON      CLOUDY    43  32  65 S7        30.10F
FRANKFORT      CLOUDY    45  32  60 S8        30.13F
$$

KYZ054-064>069-076>088-106>120-171800-
SOUTHEAST KENTUCKY

CITY           SKY/WX    TMP DP  RH WIND       PRES   REMARKS
JACKSON        LGT RAIN  42  29  59 CALM      30.16F
LONDON         CLOUDY    43  30  60 S6        30.19F
SOMERSET       DRIZZLE   41  32  70 S3        30.18F
MIDDLESBORO    CLOUDY    38  33  82 CALM      30.22F
MONTICELLO     LGT RAIN  43  36  76 E8        30.19F
$$





USA.gov is the U.S. government's official web portal to all federal, state and local government web resources and services.